EW0036 Weather Reports


Display with metric or nautical units.
time (UTC)temp
F
wind
direction
speed
MPH
gust
MPH
rain 1hr
in
rain 24hr
in
rain mn
in
humidity
%
barometer
mb
20190123110028 20 55 2.0 10.0 0.00 0.00 0.00 93 1010.5
20190123105027 20 90 1.0 4.0 0.00 0.00 0.00 93 1010.5
20190123104025 20 51 2.0 5.0 0.00 0.00 0.00 93 1010.8
20190123103024 20 119 2.0 6.0 0.00 0.00 0.00 93 1011.2
20190123102022 20 41 1.0 9.0 0.00 0.00 0.00 93 1011.2
20190123101021 20 70 2.0 7.0 0.00 0.00 0.00 93 1011.5
20190123100020 20 323 2.0 7.0 0.00 0.00 0.00 93 1011.9
20190123095019 20 85 1.0 7.0 0.00 0.00 0.00 93 1012.2
20190123094018 20 48 2.0 8.0 0.00 0.00 0.00 93 1012.2
20190123093017 20 185 1.0 6.0 0.00 0.00 0.00 93 1012.5
20190123092016 20 21 2.0 7.0 0.00 0.00 0.00 93 1012.5
20190123091015 20 79 2.0 7.0 0.00 0.00 0.00 93 1012.9
20190123090014 20 37 2.0 6.0 0.00 0.00 0.00 93 1013.2
20190123085012 20 89 2.0 6.0 0.00 0.00 0.00 93 1013.2
20190123084008 20 78 2.0 8.0 0.00 0.00 0.00 93 1013.2
20190123083008 20 357 1.0 6.0 0.00 0.00 0.00 93 1013.5
20190123082007 20 66 2.0 6.0 0.00 0.00 0.00 93 1013.5
20190123081005 19 156 2.0 6.0 0.00 0.00 0.00 93 1013.5
20190123080004 19 120 2.0 6.0 0.00 0.00 0.00 93 1013.5
20190123075003 19 119 2.0 6.0 0.00 0.00 0.00 93 1013.5
20190123074002 19 125 2.0 7.0 0.00 0.00 0.00 93 1013.5
20190123073000 19 73 2.0 7.0 0.00 0.00 0.00 92 1013.5
20190123071959 19 8 2.0 6.0 0.00 0.00 0.00 92 1013.5
20190123070958 19 92 2.0 7.0 0.00 0.00 0.00 92 1013.5
20190123065958 18 25 2.0 5.0 0.00 0.00 0.00 92 1013.9
20190123064957 18 32 1.0 5.0 0.00 0.00 0.00 92 1013.9
20190123063956 18 92 2.0 5.0 0.00 0.00 0.00 92 1014.2
20190123062954 18 346 2.0 4.0 0.00 0.00 0.00 92 1014.2
20190123061953 18 47 2.0 5.0 0.00 0.00 0.00 92 1014.2
20190123060952 18 67 1.0 6.0 0.00 0.00 0.00 92 1014.2
20190123055951 18 34 1.0 5.0 0.00 0.00 0.00 92 1014.2
20190123054950 18 16 1.0 5.0 0.00 0.00 0.00 93 1014.2
20190123053949 18 108 1.0 6.0 0.00 0.00 0.00 92 1014.6
20190123052948 18 116 2.0 6.0 0.00 0.00 0.00 92 1014.6
20190123051946 18 104 1.0 5.0 0.00 0.00 0.00 92 1014.6
20190123050945 18 117 1.0 6.0 0.00 0.00 0.00 92 1014.9
20190123045944 18 119 2.0 6.0 0.00 0.00 0.00 92 1014.9
20190123044943 18 124 1.0 6.0 0.00 0.00 0.00 92 1014.9
20190123043942 18 77 1.0 4.0 0.00 0.00 0.00 92 1014.9
20190123042941 18 112 1.0 4.0 0.00 0.00 0.00 92 1014.9
20190123041940 18 154 1.0 2.0 0.00 0.00 0.00 93 1014.9
20190123040938 18 104 1.0 4.0 0.00 0.00 0.00 93 1015.2
20190123035937 18 125 1.0 5.0 0.00 0.00 0.00 93 1015.2
20190123034936 19 72 1.0 5.0 0.00 0.00 0.00 93 1015.2
20190123033935 19 133 1.0 4.0 0.00 0.00 0.00 93 1015.2
20190123032935 19 107 1.0 3.0 0.00 0.00 0.00 93 1015.2
20190123031934 18 91 1.0 2.0 0.00 0.00 0.00 93 1015.6
20190123030932 18 204 1.0 2.0 0.00 0.00 0.00 92 1015.6
20190123025931 18 113 1.0 4.0 0.00 0.00 0.00 92 1015.9
20190123024930 18 170 1.0 5.0 0.00 0.00 0.00 92 1015.9
20190123023929 18 122 2.0 5.0 0.00 0.00 0.00 92 1015.9
20190123022928 18 104 2.0 6.0 0.00 0.00 0.00 92 1015.9
20190123021927 18 133 2.0 6.0 0.00 0.00 0.00 92 1016.3
20190123020926 18 107 2.0 6.0 0.00 0.00 0.00 92 1016.6
20190123015925 18 109 2.0 4.0 0.00 0.00 0.00 92 1016.6
20190123014924 18 133 1.0 4.0 0.00 0.00 0.00 92 1016.6
20190123013922 19 98 1.0 4.0 0.00 0.00 0.00 92 1016.9
20190123012921 19 6 1.0 4.0 0.00 0.00 0.00 92 1016.9
20190123011920 18 98 1.0 2.0 0.00 0.00 0.00 92 1016.9
20190123010919 18 144 1.0 2.0 0.00 0.00 0.00 92 1017.3
20190123005918 18 106 2.0 2.0 0.00 0.00 0.00 92 1017.3
20190123004917 18 115 1.0 4.0 0.00 0.00 0.00 91 1017.6
20190123003917 18 108 1.0 4.0 0.00 0.00 0.00 91 1017.6
20190123002915 18 67 1.0 3.0 0.00 0.00 0.00 91 1017.9
20190123000912 18 106 2.0 4.0 0.00 0.00 0.00 91 1017.9
20190122235911 18 124 1.0 2.0 0.00 0.00 0.00 90 1017.9
20190122234910 18 106 1.0 2.0 0.00 0.00 0.00 90 1017.9
20190122233908 19 122 1.0 2.0 0.00 0.00 0.00 89 1018.3
20190122232907 19 142 1.0 2.0 0.00 0.00 0.00 88 1018.3
20190122231906 19 94 1.0 2.0 0.00 0.00 0.00 88 1018.6
20190122230904 19 142 1.0 2.0 0.00 0.00 0.00 87 1018.6
20190122225903 19 254 1.0 4.0 0.00 0.00 0.00 86 1018.6
20190122224902 19 49 1.0 5.0 0.00 0.00 0.00 85 1018.6
20190122223901 19 72 1.0 3.0 0.00 0.00 0.00 85 1019.0
20190122222900 19 136 0.0 2.0 0.00 0.00 0.00 85 1019.0
20190122221859 19 129 1.0 3.0 0.00 0.00 0.00 84 1019.0
20190122220858 19 138 1.0 2.0 0.00 0.00 0.00 84 1019.0
20190122215858 19 152 1.0 3.0 0.00 0.00 0.00 84 1019.3
20190122214857 19 148 1.0 2.0 0.00 0.00 0.00 84 1019.3
20190122213855 19 169 0.0 3.0 0.00 0.00 0.00 83 1019.3
20190122212854 19 101 1.0 3.0 0.00 0.00 0.00 83 1019.3
20190122211853 19 171 1.0 2.0 0.00 0.00 0.00 83 1019.6
20190122210852 19 203 2.0 2.0 0.00 0.00 0.00 83 1019.6
20190122205851 19 47 1.0 3.0 0.00 0.00 0.00 83 1019.6
20190122204850 19 78 1.0 3.0 0.00 0.00 0.00 83 1019.6
20190122203849 19 70 1.0 1.0 0.00 0.00 0.00 84 1019.6
20190122202847 19 214 0.0 1.0 0.00 0.00 0.00 84 1019.6
20190122201846 19 134 1.0 1.0 0.00 0.00 0.00 84 1019.6
20190122200845 19 103 0.0 1.0 0.00 0.00 0.00 84 1019.3
20190122195844 19 101 1.0 1.0 0.00 0.00 0.00 83 1019.6
20190122194842 20 161 0.0 2.0 0.00 0.00 0.00 83 1019.6
20190122193841 20 118 0.0 2.0 0.00 0.00 0.00 83 1019.6
20190122192840 20 112 1.0 2.0 0.00 0.00 0.00 83 1019.6
20190122191839 21 113 0.0 2.0 0.00 0.00 0.00 83 1019.6
20190122190838 21 127 0.0 1.0 0.00 0.00 0.00 83 1020.0
20190122185836 21 119 1.0 1.0 0.00 0.00 0.00 83 1020.0
20190122184835 21 130 0.0 1.0 0.00 0.00 0.00 82 1020.0
20190122183834 21 116 1.0 1.0 0.00 0.00 0.00 82 1020.0
20190122182832 21 114 1.0 1.0 0.00 0.00 0.00 82 1020.3
20190122181832 21 95 1.0 2.0 0.00 0.00 0.00 81 1020.3
20190122180831 21 118 1.0 4.0 0.00 0.00 0.00 80 1020.3
20190122175830 21 238 1.0 4.0 0.00 0.00 0.00 80 1020.3
20190122174829 21 188 1.0 3.0 0.00 0.00 0.00 80 1020.3
20190122173827 21 221 0.0 4.0 0.00 0.00 0.00 80 1020.3
20190122172826 21 152 1.0 2.0 0.00 0.00 0.00 80 1020.3
20190122171825 21 94 2.0 4.0 0.00 0.00 0.00 80 1020.3
20190122170823 21 112 2.0 4.0 0.00 0.00 0.00 80 1020.3
20190122165822 22 188 1.0 2.0 0.00 0.00 0.00 81 1020.3
20190122164821 22 354 0.0 2.0 0.00 0.00 0.00 81 1020.7
20190122163820 22 153 1.0 1.0 0.00 0.00 0.00 80 1020.7
20190122162819 22 89 1.0 2.0 0.00 0.00 0.00 80 1020.7
20190122161817 22 103 1.0 2.0 0.00 0.00 0.00 80 1020.7
20190122160816 22 95 1.0 1.0 0.00 0.00 0.00 80 1020.7
20190122155815 22 188 0.0 2.0 0.00 0.00 0.00 80 1020.7
20190122154814 22 67 1.0 2.0 0.00 0.00 0.00 80 1020.7
20190122153813 22 116 1.0 3.0 0.00 0.00 0.00 80 1020.7
20190122152813 22 222 1.0 2.0 0.00 0.00 0.00 80 1020.7
20190122151811 22 72 0.0 1.0 0.00 0.00 0.00 80 1021.0
20190122150754 22 233 0.0 1.0 0.00 0.00 0.00 80 1021.0
20190122145752 23 229 1.0 2.0 0.00 0.00 0.00 80 1021.0
20190122144751 23 357 0.0 3.0 0.00 0.00 0.00 79 1021.0
20190122143750 23 122 1.0 2.0 0.00 0.00 0.00 79 1021.0
20190122142748 23 86 0.0 1.0 0.00 0.00 0.00 78 1021.0
20190122141747 23 177 1.0 2.0 0.00 0.00 0.00 78 1021.0
20190122140746 24 75 1.0 2.0 0.00 0.00 0.00 77 1021.0
20190122135745 24 98 1.0 2.0 0.00 0.00 0.00 76 1021.0
20190122134744 24 255 1.0 2.0 0.00 0.00 0.00 75 1021.0
20190122133743 24 84 1.0 1.0 0.00 0.00 0.00 73 1021.3
20190122132742 24 99 0.0 2.0 0.00 0.00 0.00 72 1021.3
20190122131741 25 119 1.0 3.0 0.00 0.00 0.00 72 1021.3
20190122130740 25 128 1.0 4.0 0.00 0.00 0.00 72 1021.3
20190122125739 25 136 1.0 4.0 0.00 0.00 0.00 71 1021.3
20190122124738 25 179 1.0 3.0 0.00 0.00 0.00 70 1021.3
20190122123737 25 88 1.0 4.0 0.00 0.00 0.00 68 1021.3
20190122122736 25 211 1.0 2.0 0.00 0.00 0.00 67 1021.3
20190122121735 26 231 1.0 2.0 0.00 0.00 0.00 66 1021.3
20190122120734 26 240 1.0 2.0 0.00 0.00 0.00 64 1021.3
20190122115732 26 263 1.0 3.0 0.00 0.00 0.00 65 1021.3
20190122114732 26 106 1.0 3.0 0.00 0.00 0.00 65 1021.7
20190122113730 26 75 1.0 3.0 0.00 0.00 0.00 65 1021.7
20190122112730 26 80 1.0 4.0 0.00 0.00 0.00 66 1021.7
20190122111728 26 143 1.0 5.0 0.00 0.00 0.00 67 1021.7
20190122110727 26 243 2.0 5.0 0.00 0.00 0.00 66 1021.7